Regional Weather Roundup
Issued by NWS

Home | Current Version | Previous Version | Graphics & Text | Print | Product List | Glossary On
Versions: 1 2 3 4 5 6 7 8 9 10 11 12 13 14 15 16 17 18 19 20 21 22 23 24 25 26 27 28 29 30 31 32 33 34 35 36 37 38 39 40 41 42 43 44 45 46 47 48 49 50
671
ASUS43 KFSD 270302
RWRSD

WEATHER ROUNDUP FOR SOUTH DAKOTA
NATIONAL WEATHER SERVICE SIOUX FALLS SD
1000 PM CDT MON SEP 26 2016

NOTE: "FAIR" INDICATES FEW OR NO CLOUDS BELOW 12,000 FEET WITH NO
SIGNIFICANT WEATHER AND/OR OBSTRUCTIONS TO VISIBILITY.


SDZ001>005-009-010-012>017-270400-
NORTHWEST AND NORTH CENTRAL SOUTH DAKOTA

CITY           SKY/WX    TMP DP  RH WIND       PRES   REMARKS
BUFFALO          N/A     53  42  66 W6        30.11S
FAITH            N/A     53  41  63 W7        30.15F
MOBRIDGE       CLEAR     47  37  68 CALM      30.08S
$$

SDZ012>016-024>037-041>051-057-063-072>074-270400-
SOUTHWEST AND SOUTH CENTRAL SOUTH DAKOTA

CITY           SKY/WX    TMP DP  RH WIND       PRES   REMARKS
RAPID CTY ARPT CLEAR     49  40  71 W7        30.20S
PIERRE         CLEAR     55  37  50 N8        30.10S
CUSTER         CLEAR     51  38  60 NW5       30.29F
ELLSWORTH AFB  CLEAR     60  41  49 NW8       30.19S
PHILIP         CLEAR     53  40  61 W8        30.15S
PINE RIDGE     CLEAR     51  39  63 VRB3      30.23R
WINNER         FAIR      54  42  64 W6        30.13R
$$

SDZ004>011-016>023-039-040-270400-
NORTHEAST SOUTH DAKOTA

CITY           SKY/WX    TMP DP  RH WIND       PRES   REMARKS
ABERDEEN       CLEAR     55  35  47 NW9       30.04F
WATERTOWN      CLEAR     55  37  50 NW9       30.02F
SISSETON         N/A     55  34  45 NW10      29.97F
$$

SDZ017-020-022-023-036>040-048>070-270400-
SOUTHEAST SOUTH DAKOTA

CITY           SKY/WX    TMP DP  RH WIND       PRES   REMARKS
SIOUX FALLS    CLEAR     54  37  52 W8        30.04S
HURON          CLEAR     48  34  58 W8        30.06S
MITCHELL       CLEAR     55  38  52 W7        30.07S
YANKTON        CLEAR     52  43  71 W8        30.06S
$$

ABBREVIATIONS USED IN REMARKS
   TC - TEMPERATURE IN CELSIUS
  WCI - WIND CHILL INDEX
   HX - HEAT INDEX
  VSB - VISIBILITY





USA.gov is the U.S. government's official web portal to all federal, state and local government web resources and services.